CES5625 ZSPD-ZYTL

Flight info

Callsign CES5625
Flight time N/A
Altitude 37100
Route ODU84D/16R ODULO B221 XDX/K0824S1190 DCT URBAD W172 IGDEG W173 NIXEP NIX16A
Aircraft A20N/M-SDE2E3FGHIRWXY/LB1

Departure

Time N/A
Airport Shanghai Pudong International Airport (ZSPD)

Arrival

Time 2026-04-25 08:35
Airport Dalian Zhoushuizi International Airport (ZYTL)
Time Latitude Longitude Altitude Speed Heading
2026-04-25 08:24 38.42648 121.46825 10554 ft 364 kts 40°
2026-04-25 08:24 38.44642 121.48626 10407 ft 348 kts 31°
2026-04-25 08:24 38.46635 121.50269 10248 ft 333 kts 31°
2026-04-25 08:24 38.48540 121.51847 10125 ft 319 kts 31°
2026-04-25 08:25 38.50380 121.53374 9844 ft 311 kts 31°
2026-04-25 08:25 38.52190 121.54876 9383 ft 310 kts 31°
2026-04-25 08:25 38.53975 121.56357 8933 ft 309 kts 31°
2026-04-25 08:25 38.55762 121.57842 8604 ft 303 kts 31°
2026-04-25 08:26 38.57524 121.59307 8223 ft 300 kts 31°
2026-04-25 08:26 38.59267 121.60758 7842 ft 298 kts 31°
2026-04-25 08:26 38.61079 121.62010 7452 ft 294 kts 22°
2026-04-25 08:26 38.62940 121.63096 7096 ft 292 kts 22°
2026-04-25 08:27 38.64783 121.64181 6725 ft 290 kts 22°
2026-04-25 08:27 38.66613 121.65262 6345 ft 289 kts 22°
2026-04-25 08:27 38.68419 121.66331 5962 ft 288 kts 22°
2026-04-25 08:27 38.70239 121.67409 5587 ft 287 kts 22°
2026-04-25 08:28 38.72053 121.68484 5219 ft 286 kts 22°
2026-04-25 08:28 38.73856 121.69553 4843 ft 285 kts 22°
2026-04-25 08:28 38.75655 121.70619 4461 ft 284 kts 22°
2026-04-25 08:28 38.77428 121.71670 4080 ft 283 kts 22°
2026-04-25 08:29 38.79216 121.72730 3712 ft 282 kts 23°
2026-04-25 08:29 38.80970 121.73773 3587 ft 271 kts 23°
2026-04-25 08:29 38.82651 121.74774 3490 ft 261 kts 23°
2026-04-25 08:29 38.84271 121.75739 3372 ft 252 kts 23°
2026-04-25 08:30 38.85898 121.76530 3183 ft 245 kts
2026-04-25 08:30 38.87539 121.76812 2994 ft 239 kts
2026-04-25 08:30 38.89198 121.77007 2772 ft 237 kts
2026-04-25 08:30 38.90812 121.77211 2686 ft 228 kts
2026-04-25 08:31 38.92359 121.77370 2592 ft 216 kts 352°
2026-04-25 08:31 38.93702 121.76828 2479 ft 194 kts 316°
2026-04-25 08:31 38.94538 121.75603 2252 ft 181 kts 289°
2026-04-25 08:31 38.94940 121.74107 2036 ft 174 kts 275°
2026-04-25 08:32 38.95122 121.72563 2007 ft 179 kts 271°
2026-04-25 08:32 38.95251 121.70988 2001 ft 175 kts 270°
2026-04-25 08:32 38.95370 121.69442 2000 ft 174 kts 269°
2026-04-25 08:32 38.95490 121.67900 2017 ft 167 kts 269°
2026-04-25 08:33 38.95599 121.66482 1805 ft 157 kts 270°
2026-04-25 08:33 38.95703 121.65161 1611 ft 138 kts 269°
2026-04-25 08:33 38.95792 121.63996 1420 ft 126 kts 269°
2026-04-25 08:33 38.95869 121.62841 1232 ft 132 kts 268°
2026-04-25 08:34 38.95947 121.61665 1087 ft 134 kts 271°
2026-04-25 08:34 38.96059 121.60480 920 ft 133 kts 272°
2026-04-25 08:34 38.96138 121.59281 770 ft 136 kts 271°
2026-04-25 08:34 38.96223 121.58061 586 ft 139 kts 273°
2026-04-25 08:35 38.96329 121.56814 383 ft 141 kts 271°
2026-04-25 08:35 38.96425 121.55579 157 ft 139 kts 272°
2026-04-25 08:35 38.96510 121.54445 115 ft 106 kts 275°
2026-04-25 08:35 38.96567 121.53763 115 ft 48 kts 275°
2026-04-25 08:36 38.96573 121.53382 114 ft 42 kts 259°
2026-04-25 08:36 38.96539 121.53243 114 ft 9 kts 249°
2026-04-25 08:36 38.96509 121.53153 114 ft 13 kts 244°
2026-04-25 08:36 38.96447 121.53083 114 ft 13 kts 177°
2026-04-25 08:37 38.96409 121.53183 115 ft 15 kts 90°
2026-04-25 08:37 38.96414 121.53298 112 ft 10 kts 111°
2026-04-25 08:37 38.96353 121.53311 112 ft 9 kts 184°
2026-04-25 08:37 38.96287 121.53308 114 ft 9 kts 181°
2026-04-25 08:38 38.96244 121.53306 114 ft 0 kts 182°